Theta_e
311 312 317 315 314 313 312 312 312 314 316 315 314 314 313 311 309 311 309 306 307 312 313 314 313 313 313 315 315 314 315 314 316 317 317 316 317 314 314 317 315 316 316 316 316
308 310 312 317 314 314 314 315 314 314 315 316 315 314 314 310 309 310 304 305 309 309 313 314 315 314 315 315 315 317 315 315 315 317 317 315 315 315 315 316 317 317 316 315 315
307 306 309 314 316 313 314 315 315 315 315 315 315 315 316 309 311 310 310 305 307 312 313 313 314 314 316 316 316 316 317 314 315 315 314 315 315 314 316 318 317 318 317 316 316
305 304 306 309 315 316 315 316 315 316 316 315 316 316 313 308 308 312 311 307 309 314 312 312 315 315 316 317 316 315 315 313 314 313 314 315 314 314 314 316 315 315 314 315 317
304 303 303 307 308 315 318 316 316 315 315 316 316 317 310 309 307 313 309 313 314 312 312 313 315 315 314 315 315 315 314 313 314 312 312 312 315 315 315 315 315 314 312 314 315
304 302 302 304 306 307 310 315 315 316 315 316 317 316 309 303 309 312 315 314 312 311 312 313 314 313 314 315 315 315 315 314 314 314 313 314 316 314 316 314 315 314 315 315 314
303 302 301 303 303 305 306 309 314 315 316 316 316 315 309 306 309 312 312 311 310 311 313 312 312 314 313 315 313 314 316 316 316 315 316 314 318 317 317 314 315 316 316 315 315
302 301 300 301 302 303 305 306 312 314 314 315 316 314 317 307 309 310 310 310 309 310 312 312 311 313 314 312 314 316 316 317 316 314 314 314 322 319 315 316 318 319 319 318 318
301 301 300 299 298 299 303 308 311 313 314 315 314 310 316 307 309 309 310 311 312 312 312 312 313 315 314 316 317 316 319 317 318 315 316 314 321 318 315 317 319 320 320 318 317
300 301 301 298 298 299 300 308 309 311 315 314 308 311 310 309 308 310 311 312 313 313 314 314 314 316 315 316 324 320 318 318 320 317 316 319 319 320 319 317 318 319 318 316 314
300 300 299 297 297 299 300 308 312 313 310 315 313 310 310 307 308 309 311 311 312 313 314 313 315 319 315 315 313 314 317 319 318 314 317 318 318 318 319 318 317 315 315 314 313
301 299 298 296 296 298 300 306 308 307 315 312 310 310 307 307 310 310 311 313 314 313 313 314 314 314 314 313 315 315 316 317 316 314 316 318 319 319 316 314 313 313 313 312 313
298 297 296 296 296 297 300 305 307 306 309 309 312 312 309 307 308 312 312 311 312 313 314 313 312 312 313 313 314 315 315 316 315 315 314 316 325 321 314 313 312 310 311 310 311
296 296 295 296 296 298 299 302 307 305 315 311 312 313 309 308 308 307 311 311 311 312 311 312 310 311 312 313 313 314 313 313 314 318 326 316 340 326 316 315 311 308 309 310 309
295 295 295 295 298 299 299 305 308 306 320 309 312 309 308 310 309 311 308 309 312 311 311 312 313 312 312 312 311 314 312 314 316 319 319 319 328 327 314 316 309 307 307 307 308
295 294 292 295 297 297 298 305 305 312 316 312 310 312 312 311 310 310 311 308 309 311 309 309 307 312 313 310 311 311 314 313 314 317 326 318 321 329 313 307 307 306 305 304 305
295 293 293 295 298 296 300 305 310 313 302 311 312 312 314 314 312 312 312 310 309 310 311 310 310 309 309 313 311 312 316 324 325 326 326 311 316 319 306 305 304 303 303 302 302
293 293 295 294 295 298 302 306 307 303 307 311 311 313 315 314 312 312 312 310 309 309 308 307 305 311 310 314 316 314 317 323 326 320 317 312 317 314 304 302 301 301 300 300 299
293 293 293 294 297 300 306 307 304 301 308 312 312 312 315 314 314 313 313 312 311 309 314 308 309 308 308 309 312 315 317 311 312 307 314 314 312 305 305 303 301 300 299 298 297
293 293 293 295 298 301 304 304 305 304 307 310 312 313 315 315 315 315 314 312 313 310 309 312 313 308 308 308 308 312 311 315 315 318 315 309 310 312 307 304 300 299 298 296 296
291 295 292 296 299 300 306 302 303 304 305 311 314 315 314 315 314 315 315 313 312 311 311 313 315 310 309 311 312 311 313 311 313 311 310 310 310 305 304 301 300 298 296 295 295
291 296 291 294 299 297 300 300 300 301 302 308 309 311 312 313 316 316 315 312 311 311 313 315 317 315 311 307 307 308 312 311 312 312 310 311 311 301 300 298 297 296 295 294 293
293 292 291 292 301 299 296 298 297 300 298 303 306 308 309 310 314 312 311 308 307 312 314 315 315 321 318 314 310 310 310 309 309 310 312 313 311 300 298 297 296 296 294 293 292
290 295 293 290 287 295 296 297 298 295 296 300 302 303 307 307 305 307 309 305 305 304 309 312 314 316 320 316 313 311 309 309 311 315 312 312 309 303 301 299 296 295 294 293 292
288 288 287 293 292 293 293 294 295 294 294 296 300 301 304 305 303 303 303 307 304 301 305 309 314 313 314 312 312 311 310 309 311 312 313 312 310 306 301 298 295 294 293 292 292
291 290 287 289 288 291 292 293 292 289 292 296 296 295 299 298 296 303 300 300 298 300 306 306 311 310 310 310 310 312 311 311 311 311 311 309 304 299 297 296 295 294 293 292 291
285 284 289 287 289 291 291 292 290 290 290 290 293 295 293 291 290 290 291 292 294 296 300 305 310 311 313 307 311 314 305 305 304 301 303 312 302 297 297 295 294 293 292 291 289
Wind_Speed
14 15 9 16 14 13 10 6 4 2 3 4 3 2 1 3 4 6 8 6 10 7 10 12 7 7 3 3 1 1 4 6 5 6 1 2 3 2 0 3 2 3 2 3 7
14 12 16 13 17 16 15 12 9 6 3 2 3 0 0 1 4 9 6 14 11 15 13 13 9 10 4 4 2 4 5 7 3 4 2 1 1 1 2 3 5 6 6 4 7
12 13 15 11 20 18 15 13 12 9 6 3 2 1 3 4 4 4 8 14 14 15 11 10 10 4 4 3 4 2 3 4 2 4 3 3 3 1 3 7 10 8 3 8 10
9 13 13 12 2 22 17 12 13 10 7 3 1 3 5 4 5 1 5 17 16 18 15 13 9 7 6 8 6 5 7 2 1 3 3 3 2 4 7 11 5 6 3 5 10
10 11 13 8 9 4 17 16 10 9 7 5 3 2 1 3 1 3 12 14 19 17 15 11 15 6 7 5 5 6 3 4 5 5 5 2 10 7 12 15 12 10 8 11 12
11 8 10 10 6 7 10 12 10 8 7 4 3 1 2 3 1 6 12 15 13 9 9 10 9 4 2 3 8 2 7 5 4 5 3 4 7 1 2 2 1 3 8 8 10
11 9 7 10 8 7 5 4 11 8 7 6 2 1 2 1 1 6 8 8 16 8 6 3 6 4 4 3 1 0 4 5 8 2 3 3 8 9 8 6 9 8 8 8 8
13 10 7 3 8 8 6 5 12 10 6 5 3 0 3 1 5 9 9 10 8 7 7 8 7 5 2 3 1 2 3 4 3 1 2 1 7 2 2 1 4 8 8 8 9
12 12 6 6 7 10 8 6 10 10 10 9 5 2 2 3 5 8 8 10 11 8 6 9 4 2 5 3 2 3 3 6 1 1 2 5 6 1 3 9 14 12 11 10 12
14 12 8 3 5 7 9 1 8 11 11 9 4 2 2 4 6 9 6 15 5 9 6 3 3 3 4 5 5 4 4 5 4 2 4 8 15 16 12 9 13 15 13 10 10
13 12 7 6 3 4 1 3 4 3 5 3 6 2 6 6 6 4 6 7 5 3 6 3 7 13 12 8 1 3 1 1 2 1 3 4 12 15 16 10 11 12 11 10 10
12 12 9 5 3 3 2 1 2 2 4 3 5 3 4 3 5 3 9 5 6 8 9 5 13 8 6 7 8 3 2 2 1 2 3 7 17 11 7 8 13 15 14 14 13
15 10 6 3 1 2 6 2 1 2 3 1 3 2 4 4 3 11 9 4 5 8 11 8 1 12 9 9 10 10 9 4 3 3 1 8 6 3 5 9 13 16 15 15 15
10 7 4 3 3 5 4 13 2 2 3 4 4 1 4 5 3 1 4 3 3 9 7 4 4 11 11 7 10 9 8 6 3 2 3 4 4 5 3 7 16 18 17 16 17
7 3 2 7 7 8 3 15 5 5 7 7 4 1 1 4 11 2 1 2 8 7 6 4 6 10 6 6 8 1 4 6 3 3 2 1 2 2 4 4 16 18 17 17 16
3 1 4 7 9 5 8 17 7 1 4 5 5 6 10 3 2 4 3 4 3 5 3 3 2 1 2 3 7 10 6 5 3 1 3 2 3 0 4 6 9 14 15 17 17
9 7 7 5 4 3 8 5 4 2 1 7 5 8 16 7 6 8 12 8 6 7 7 1 1 0 2 6 4 2 7 3 3 3 3 2 3 3 4 6 8 12 13 15 16
9 7 10 8 2 2 2 3 4 2 4 4 5 14 8 11 5 7 13 9 3 2 7 9 5 8 5 2 6 8 3 3 5 4 3 2 5 1 7 6 7 9 11 13 16
1 6 8 12 5 2 4 5 4 6 4 9 12 11 4 6 6 6 11 9 7 6 1 7 3 2 0 2 3 6 6 2 6 2 1 3 3 6 7 10 11 12 14 15 15
2 3 7 10 6 3 2 4 1 1 3 3 7 5 7 10 5 8 11 2 3 6 5 2 4 0 1 2 2 4 7 3 1 5 5 3 3 1 6 7 10 13 14 13 13
3 2 10 4 7 2 5 3 3 1 3 2 4 5 7 6 4 6 9 2 2 5 8 2 0 2 2 7 9 4 4 1 1 1 3 4 2 5 4 5 7 10 11 12 13
2 2 10 3 3 2 3 3 1 3 6 6 4 7 5 5 4 2 4 5 6 2 9 3 2 4 3 1 1 1 3 6 4 4 1 2 2 3 6 6 6 8 9 10 12
2 1 6 1 3 3 3 4 7 6 7 5 4 5 6 4 4 3 4 5 9 4 5 7 3 4 2 2 1 4 4 2 3 2 6 4 2 5 6 6 6 7 8 9 11
2 2 4 4 2 3 3 4 5 7 5 5 4 3 3 5 9 4 3 5 4 7 9 4 2 2 4 3 2 4 4 5 8 4 5 8 6 10 6 6 5 6 7 8 10
3 2 1 3 5 7 3 3 4 4 3 9 5 7 1 4 3 4 4 2 5 11 4 3 2 2 3 3 3 2 2 2 10 10 7 3 3 11 7 6 5 5 5 7 9
3 3 2 3 3 5 8 5 5 2 6 5 8 9 5 6 3 4 2 4 2 6 3 3 2 1 2 4 2 2 1 2 0 2 3 4 4 5 7 7 5 5 6 8 8
2 3 3 7 3 3 3 3 3 3 9 7 4 6 14 5 4 4 4 4 3 2 2 2 1 1 2 3 3 3 1 1 3 4 3 4 4 8 6 6 5 6 6 7 9
Wind_Direction
345 9 259 244 235 227 227 226 208 165 134 134 119 83 197 186 183 177 217 219 193 159 160 150 144 137 159 131 124 258 224 222 203 198 186 186 213 170 89 238 216 216 252 59 133
331 330 355 240 236 231 235 231 225 221 198 108 124 88 192 295 190 218 230 181 157 176 158 157 155 143 177 155 147 238 218 208 216 205 205 224 275 298 226 188 232 242 203 156 164
322 318 340 2 225 230 228 241 230 224 224 222 155 283 282 241 193 186 179 189 189 170 158 159 150 170 176 142 187 175 252 208 208 233 247 256 246 241 233 260 239 257 247 186 197
310 313 318 6 243 238 234 234 228 215 213 213 214 291 329 173 203 97 227 173 170 163 148 148 164 186 177 179 183 210 231 231 235 209 203 244 316 252 220 252 285 265 248 205 215
273 299 297 326 17 109 217 213 194 202 200 197 222 283 49 195 184 73 138 148 155 152 167 161 168 171 197 183 155 229 236 215 247 250 258 281 257 271 263 264 262 254 254 249 247
253 282 291 295 337 29 67 178 191 184 197 198 178 14 124 224 64 137 150 143 155 154 160 164 172 159 139 174 207 233 240 255 274 255 247 265 274 353 245 20 279 244 258 249 252
265 253 286 278 288 300 16 85 193 187 188 200 166 113 150 159 91 151 157 151 153 172 149 178 133 169 138 170 203 127 291 246 225 253 245 231 258 232 263 291 283 271 270 261 258
274 222 252 286 288 287 276 300 187 188 189 182 202 143 247 209 157 147 150 139 148 150 140 149 136 109 88 99 40 215 244 249 85 125 54 32 264 202 111 148 327 299 280 279 281
277 204 210 281 311 278 278 246 178 182 172 181 152 188 214 145 157 152 153 145 131 125 120 120 115 134 145 166 185 184 257 229 263 57 65 203 280 213 167 307 306 305 309 308 301
274 194 209 200 336 337 269 250 158 150 159 135 104 187 205 188 143 144 137 138 114 132 109 99 83 158 151 179 217 182 211 224 197 134 219 230 263 290 299 307 309 318 321 332 343
255 175 167 211 316 325 232 121 217 162 223 193 187 110 125 115 110 114 138 98 112 132 151 106 191 206 192 199 315 126 209 203 120 51 277 267 290 289 299 349 5 1 350 358 11
170 153 156 184 299 337 169 228 338 96 154 240 126 97 116 151 110 135 158 134 154 161 126 148 222 195 174 184 217 162 145 270 299 348 310 315 296 297 23 61 50 28 22 11 4
123 126 159 195 206 242 216 172 177 26 113 144 191 169 155 151 116 169 172 127 140 152 174 171 146 171 163 185 205 225 229 190 247 306 154 303 282 31 74 99 45 32 24 18 12
116 121 137 185 173 179 194 202 151 63 137 176 179 202 134 139 86 359 181 127 140 174 166 225 131 157 179 183 198 230 218 187 220 226 275 337 290 311 18 120 31 16 16 13 9
95 106 148 183 142 166 152 178 148 18 161 140 135 55 84 154 124 190 283 97 157 141 180 169 163 150 177 208 184 193 144 141 125 164 298 194 250 228 18 3 5 6 6 9 8
54 75 166 148 149 164 164 147 112 180 137 160 131 157 153 126 75 118 143 55 103 94 41 85 355 169 107 65 186 141 100 73 78 156 235 150 240 284 11 337 338 356 7 8 8
79 66 142 136 137 184 170 176 95 217 298 155 158 166 166 144 122 162 173 170 158 140 170 139 135 308 159 106 85 248 167 142 184 193 240 33 222 2 77 21 1 356 7 13 15
61 86 77 40 60 171 164 118 155 170 186 128 143 155 169 150 131 162 163 182 227 122 143 168 189 187 171 197 191 196 241 216 207 194 154 124 227 132 95 63 38 29 27 28 24
44 54 42 5 71 58 188 189 147 191 137 132 135 154 144 153 136 149 183 189 205 204 195 170 138 47 350 137 183 171 217 64 108 62 279 188 130 144 136 52 35 31 34 28 27
104 65 19 14 60 41 115 96 87 343 357 195 153 165 159 167 139 173 173 178 196 194 300 142 123 78 85 160 74 248 150 149 261 173 211 198 248 136 191 24 26 28 27 24 27
73 95 355 63 86 41 164 99 113 324 349 2 141 122 137 147 147 165 169 80 24 164 197 162 37 106 170 208 179 156 193 111 190 246 189 171 157 10 85 59 44 38 31 26 26
91 71 349 119 57 45 110 109 150 20 16 51 71 63 114 129 98 107 121 25 326 277 183 160 52 162 186 35 348 6 218 190 198 188 269 335 149 103 100 80 59 51 39 32 33
72 4 354 26 131 111 84 84 57 38 28 41 56 25 58 73 120 101 100 13 23 54 143 161 180 143 162 219 131 216 191 182 88 88 194 180 154 150 124 90 69 62 47 38 33
90 83 22 53 23 79 107 60 103 33 57 50 60 64 98 61 37 99 98 32 13 20 29 77 153 264 236 68 75 168 196 205 216 225 231 239 146 188 166 114 77 63 54 45 38
34 81 341 67 36 78 68 60 82 48 30 21 57 41 115 105 75 66 43 95 44 356 38 69 104 133 75 100 63 74 74 204 223 241 238 166 99 164 153 124 91 64 48 39 32
110 135 67 62 75 52 15 31 65 93 8 25 86 59 95 95 43 119 36 23 26 352 61 1 103 112 74 59 76 142 48 226 295 347 278 151 111 133 121 117 97 62 45 41 33
64 94 100 20 36 89 31 105 141 165 48 57 101 91 64 76 74 77 58 77 63 43 49 32 96 67 108 20 143 201 24 330 103 50 341 225 87 152 142 117 93 87 65 41 18